| time (UTC) | temp F | wind direction | speed MPH | gust MPH | rain 1hr in | rain 24hr in | rain mn in | humidity % | barometer mb |
| 20260505230004 | 77 | 307 | 3.0 | 10.0 | 0.00 | 0.00 | 0.00 | 28 | 1007.1 |
| 20260505224503 | 77 | 308 | 4.0 | 11.0 | 0.00 | 0.00 | 0.00 | 27 | 1007.1 |
| 20260505223058 | 76 | 286 | 3.0 | 10.0 | 0.00 | 0.00 | 0.00 | 28 | 1007.2 |
| 20260505221557 | 78 | 320 | 3.0 | 10.0 | 0.00 | 0.00 | 0.00 | 27 | 1007.2 |
| 20260505220054 | 77 | 136 | 2.0 | 9.0 | 0.00 | 0.00 | 0.00 | 27 | 1007.3 |
| 20260505214610 | 77 | 250 | 3.0 | 11.0 | 0.00 | 0.00 | 0.00 | 30 | 1007.6 |
| 20260505213026 | 76 | 282 | 2.0 | 12.0 | 0.00 | 0.00 | 0.00 | 29 | 1007.6 |
| 20260505211521 | 76 | 238 | 2.0 | 15.0 | 0.00 | 0.00 | 0.00 | 28 | 1007.9 |
| 20260505210017 | 76 | 280 | 2.0 | 9.0 | 0.00 | 0.00 | 0.00 | 29 | 1008.0 |
| 20260505204513 | 77 | 262 | 4.0 | 10.0 | 0.00 | 0.00 | 0.00 | 29 | 1008.1 |
| 20260505203023 | 75 | 281 | 2.0 | 7.0 | 0.00 | 0.00 | 0.00 | 34 | 1008.2 |
| 20260505201511 | 76 | 291 | 1.0 | 7.0 | 0.00 | 0.00 | 0.00 | 34 | 1008.2 |
| 20260505200005 | 77 | 283 | 3.0 | 9.0 | 0.00 | 0.00 | 0.00 | 36 | 1008.4 |
| 20260505194503 | 75 | 287 | 4.0 | 13.0 | 0.00 | 0.00 | 0.00 | 36 | 1008.4 |
| 20260505193002 | 75 | 292 | 3.0 | 9.0 | 0.00 | 0.00 | 0.00 | 35 | 1008.5 |
| 20260505191502 | 75 | 282 | 4.0 | 15.0 | 0.00 | 0.00 | 0.00 | 35 | 1008.7 |
| 20260505184553 | 74 | 233 | 2.0 | 7.0 | 0.00 | 0.00 | 0.00 | 39 | 1009.0 |
| 20260505183112 | 74 | 271 | 2.0 | 15.0 | 0.00 | 0.00 | 0.00 | 40 | 1009.1 |
| 20260505181548 | 73 | 255 | 3.0 | 8.0 | 0.00 | 0.00 | 0.00 | 42 | 1009.1 |
| 20260505180045 | 72 | 276 | 2.0 | 8.0 | 0.00 | 0.00 | 0.00 | 47 | 1009.2 |
| 20260505174542 | 71 | 278 | 0.0 | 7.0 | 0.00 | 0.00 | 0.00 | 50 | 1009.3 |
| 20260505173049 | 70 | 266 | 1.0 | 7.0 | 0.00 | 0.00 | 0.00 | 52 | 1009.3 |
| 20260505171546 | 71 | 223 | 2.0 | 8.0 | 0.00 | 0.00 | 0.00 | 51 | 1009.3 |
| 20260505170038 | 71 | 251 | 2.0 | 7.0 | 0.00 | 0.00 | 0.00 | 50 | 1009.3 |
| 20260505164538 | 70 | 252 | 3.0 | 8.0 | 0.00 | 0.00 | 0.00 | 51 | 1009.3 |
| 20260505163037 | 69 | 276 | 3.0 | 7.0 | 0.00 | 0.00 | 0.00 | 54 | 1009.3 |
| 20260505161538 | 68 | 241 | 1.0 | 6.0 | 0.00 | 0.00 | 0.00 | 55 | 1009.4 |
| 20260505153033 | 67 | 264 | 2.0 | 5.0 | 0.00 | 0.00 | 0.00 | 58 | 1009.3 |
| 20260505151536 | 66 | 280 | 0.0 | 5.0 | 0.00 | 0.00 | 0.00 | 59 | 1009.1 |
| 20260505124543 | 0 | 0.0 | 0.0 | 0.00 | 0.00 | 0.00 | 1008.5 | ||
| 20260505123038 | 0 | 0.0 | 0.0 | 0.00 | 0.00 | 0.00 | 1008.3 | ||
| 20260505121537 | 0 | 0.0 | 0.0 | 0.00 | 0.00 | 0.00 | 1008.2 | ||
| 20260505120054 | 0 | 0.0 | 0.0 | 0.00 | 0.00 | 0.00 | 1008.1 | ||
| 20260505114523 | 0 | 0.0 | 0.0 | 0.00 | 0.00 | 0.00 | 1008.1 | ||
| 20260505113020 | 0 | 0.0 | 0.0 | 0.00 | 0.00 | 0.00 | 1008.1 | ||
| 20260505111516 | 64 | 127 | 4.0 | 6.0 | 0.00 | 0.00 | 0.00 | 65 | 1008.1 |
| 20260505101516 | 65 | 95 | 2.0 | 6.0 | 0.00 | 0.00 | 0.00 | 61 | 1008.7 |
| 20260505100004 | 65 | 141 | 0.0 | 7.0 | 0.00 | 0.00 | 0.00 | 61 | 1009.0 |
| 20260505094501 | 65 | 96 | 1.0 | 5.0 | 0.00 | 0.00 | 0.00 | 63 | 1009.0 |
| 20260505093002 | 65 | 101 | 1.0 | 7.0 | 0.00 | 0.00 | 0.00 | 63 | 1009.1 |
| 20260505091605 | 65 | 111 | 1.0 | 7.0 | 0.00 | 0.00 | 0.00 | 62 | 1009.2 |
| 20260505090055 | 65 | 154 | 3.0 | 10.0 | 0.00 | 0.00 | 0.00 | 61 | 1009.2 |
| 20260505084552 | 66 | 144 | 0.0 | 8.0 | 0.00 | 0.00 | 0.00 | 58 | 1009.5 |
| 20260505083051 | 67 | 290 | 2.0 | 7.0 | 0.00 | 0.00 | 0.00 | 54 | 1009.3 |
| 20260505081544 | 68 | 37 | 2.0 | 8.0 | 0.00 | 0.00 | 0.00 | 50 | 1009.5 |
| 20260505080041 | 69 | 181 | 2.0 | 11.0 | 0.00 | 0.00 | 0.00 | 44 | 1009.7 |
| 20260505074540 | 69 | 190 | 2.0 | 10.0 | 0.00 | 0.00 | 0.00 | 44 | 1009.7 |
| 20260505073057 | 69 | 302 | 1.0 | 6.0 | 0.00 | 0.00 | 0.00 | 43 | 1009.5 |
| 20260505071535 | 69 | 201 | 2.0 | 6.0 | 0.00 | 0.00 | 0.00 | 42 | 1009.6 |
| 20260505070035 | 70 | 282 | 3.0 | 10.0 | 0.00 | 0.00 | 0.00 | 39 | 1009.6 |
| 20260505064540 | 70 | 259 | 2.0 | 8.0 | 0.00 | 0.00 | 0.00 | 37 | 1009.4 |
| 20260505063031 | 71 | 177 | 3.0 | 5.0 | 0.00 | 0.00 | 0.00 | 33 | 1009.1 |
| 20260505061540 | 71 | 269 | 1.0 | 6.0 | 0.00 | 0.00 | 0.00 | 30 | 1008.9 |
| 20260505060024 | 71 | 278 | 2.0 | 6.0 | 0.00 | 0.00 | 0.00 | 32 | 1008.7 |
| 20260505054539 | 72 | 220 | 2.0 | 7.0 | 0.00 | 0.00 | 0.00 | 31 | 1008.8 |
| 20260505053025 | 72 | 217 | 0.0 | 4.0 | 0.00 | 0.00 | 0.00 | 31 | 1009.2 |
| 20260505051520 | 72 | 218 | 1.0 | 6.0 | 0.00 | 0.00 | 0.00 | 33 | 1009.4 |
| 20260505050118 | 72 | 267 | 1.0 | 4.0 | 0.00 | 0.00 | 0.00 | 43 | 1009.5 |
| 20260505041515 | 72 | 259 | 0.0 | 1.0 | 0.00 | 0.00 | 0.00 | 44 | 1008.9 |
| 20260505040013 | 72 | 277 | 0.0 | 2.0 | 0.00 | 0.00 | 0.00 | 44 | 1009.0 |
| 20260505034511 | 72 | 333 | 0.0 | 0.0 | 0.00 | 0.00 | 0.00 | 44 | 1008.7 |
| 20260505033012 | 73 | 321 | 0.0 | 2.0 | 0.00 | 0.00 | 0.00 | 43 | 1008.4 |
| 20260505031548 | 73 | 276 | 0.0 | 2.0 | 0.00 | 0.00 | 0.00 | 42 | 1008.1 |
| 20260505030037 | 73 | 262 | 0.0 | 3.0 | 0.00 | 0.00 | 0.00 | 41 | 1008.0 |
| 20260505024540 | 73 | 255 | 0.0 | 4.0 | 0.00 | 0.00 | 0.00 | 39 | 1008.0 |
| 20260505023033 | 74 | 298 | 0.0 | 2.0 | 0.00 | 0.00 | 0.00 | 40 | 1007.9 |
| 20260505021530 | 74 | 314 | 0.0 | 2.0 | 0.00 | 0.00 | 0.00 | 40 | 1007.8 |
| 20260505020032 | 74 | 286 | 0.0 | 2.0 | 0.00 | 0.00 | 0.00 | 39 | 1007.8 |
| 20260505014534 | 75 | 281 | 0.0 | 3.0 | 0.00 | 0.00 | 0.00 | 40 | 1007.5 |
| 20260505013027 | 75 | 32 | 0.0 | 3.0 | 0.00 | 0.00 | 0.00 | 39 | 1007.4 |
| 20260505011532 | 76 | 281 | 1.0 | 4.0 | 0.00 | 0.00 | 0.00 | 38 | 1007.4 |
| 20260505010026 | 76 | 65 | 0.0 | 3.0 | 0.00 | 0.00 | 0.00 | 38 | 1007.5 |
| 20260505004623 | 76 | 272 | 0.0 | 2.0 | 0.00 | 0.00 | 0.00 | 37 | 1007.6 |
| 20260505003053 | 76 | 267 | 0.0 | 3.0 | 0.00 | 0.00 | 0.00 | 37 | 1007.6 |
| 20260505001555 | 76 | 263 | 1.0 | 4.0 | 0.00 | 0.00 | 0.00 | 37 | 1007.7 |
| 20260505000106 | 76 | 280 | 0.0 | 6.0 | 0.00 | 0.00 | 0.00 | 39 | 1008.0 |
| 20260504234547 | 76 | 267 | 0.0 | 4.0 | 0.00 | 0.00 | 0.00 | 38 | 1008.0 |
| 20260504233046 | 76 | 276 | 0.0 | 3.0 | 0.00 | 0.00 | 0.00 | 39 | 1007.7 |
| 20260504231546 | 76 | 288 | 1.0 | 4.0 | 0.00 | 0.00 | 0.00 | 38 | 1007.8 |